Weather in Maidstone

United Kingdom     51°16′16″N   0°31′03″E
temp.,
°C
wind,
m/s
gust,
m/s
humid.,
%
clouds,
%
prec.,
mm/h
press.,
hPa
HPBL,
m
4 march, thu
thu400:00+7e129796 0.1 102480
03:00+6nne1297100 0.1 1023138
06:00+5ne4696100 1.1 1023290
09:00+5nne4792100 0.3 1023388
12:00+6nne578399 0.4 1024584
15:00+5nne468498 0.0 1024622
18:00+5nne488197 0.1 1025717
21:00+4nne6108298 0.1 1027663
5 march, fri
fri500:00+2nne498075 0.1 1028480
03:00+2nne5107967 0.0 1028375
06:00+2nne487473 0.0 1029571
09:00+4ne6866100 0.0 10311227
12:00+5ne6763100 0.1 10321231
15:00+5ne6762100 0.0 10321235
18:00+4ne4863100 0.0 1032798
21:00+3ne386789 0.0 1034255
6 march, sat
sat600:00+1ne127866 0.0 103430
03:00+2nne1174100 0.0 103455
06:00+2ne227899 0.0 103437
09:00+4ene346457 0.0 10341027
12:00+5ene446069 0.0 10341228
15:00+5ne3360100 0.0 10321070
18:00+2ne237351 0.0 103144
21:000ene11810 0.0 103122
7 march, sun
sun700:00−1wnw00830 0.0 103122
03:00−1nnw118234 0.0 102921
06:00−1nw118252 0.0 102822
09:00+3nnw126567 0.0 1028338
12:00+6wnw225478 0.0 1027920
15:00+7wnw235354 0.0 10261090
18:00+2w117026 0.0 102522
21:000sw22820 0.0 102622
8 march, mon
mon800:000w11850 0.0 102522
03:00+1w11839 0.0 102522
06:00+3w117446 0.0 102522
09:00+5sw1170100 0.0 1025200
12:00+8sw226297 0.0 1025998
15:00+8sw3365100 0.0 10241031
18:00+4sw478498 0.0 1023183
21:00+1sw349430 0.0 102491